Regional Weather Roundup
Issued by NWS

Home | Current Version | Previous Version | Graphics & Text | Print | Product List | Glossary On
Versions: 1 2 3 4 5 6 7 8 9 10 11 12 13 14 15 16 17 18 19 20 21 22 23 24 25 26 27 28 29 30 31 32 33 34 35 36 37 38 39 40 41 42 43 44 45 46 47 48 49 50
000
ASUS43 KLSX 280910
RWRMO

WEATHER SUMMARY FOR MISSOURI
NATIONAL WEATHER SERVICE SPRINGFIELD MO
400 AM CDT THU JUL 28 2016

NOTE: "FAIR" INDICATES FEW OR NO CLOUDS BELOW 12,000 FEET WITH NO
       SIGNIFICANT WEATHER AND/OR OBSTRUCTIONS TO VISIBILITY.
       CURRENT SKY AND/OR WEATHER CONDITIONS ARE NOT AVAILABLE FOR
       CHILLICOTHE AND FARMINGTON.

MOZ001>031-035>038-043-044-053-054-281000-
...NORTHERN AND WESTERN MISSOURI...

CITY           SKY/WX    TMP DP  RH WIND       PRES   REMARKS
KANSAS CTY INT PTCLDY    71  70  96 CALM      29.94R
KANSAS C DTWN  CLEAR     76  72  87 SW3       29.92S
LEE`S SUMMIT   CLEAR     74  71  91 CALM      29.94S
ST JOSEPH      CLEAR     70  68  93 CALM      29.94R FOG
CHILLICOTHE      N/A     72  70  93 N3        29.93S
KIRKSVILLE     PTCLDY    70  67  90 CALM      29.93S

$$
MOZ066>068-077>081-088>096-101>105-281000-
...SOUTHWEST MISSOURI...

CITY           SKY/WX    TMP DP  RH WIND       PRES   REMARKS
SPRINGFIELD    CLEAR     72  69  90 S3        29.95S
JOPLIN         CLEAR     72  70  93 S3        29.95S
BRANSON        PTCLDY    72  72 100 CALM      29.97S

$$
MOZ032>034-039>042-045>050-055>058-069>072-281000-
...CENTRAL MISSOURI...

CITY           SKY/WX    TMP DP  RH WIND       PRES   REMARKS
COLUMBIA       CLEAR     74  74 100 W3        29.91S
JEFFERSON CITY CLEAR     75  71  87 CALM      29.89S
ROLLA          CLEAR     69  68  96 SW5       29.91S
SEDALIA        CLEAR     74  71  91 NW3       29.92F
WHITEMAN AFB   PTCLDY    73  73 100 CALM      29.90F
OSAGE BEACH    CLEAR     73  71  93 SW5       29.92S

$$
MOZ051-052-059>065-281000-
...EAST CENTRAL MISSOURI...

CITY           SKY/WX    TMP DP  RH WIND       PRES   REMARKS
ST LOUIS INTL  PTCLDY    78  72  81 W5        29.88F
SPIRIT OF STL  CLEAR     74  74 100 CALM      29.87F
ST CHARLES     PTCLDY    75  71  87 W3        29.86F

$$
MOZ072>076-082>087-097>100-106>115-281000-
...SOUTH CENTRAL AND SOUTHEAST MISSOURI...

CITY           SKY/WX    TMP DP  RH WIND       PRES   REMARKS
CAPE GIRARDEAU LGT RAIN  74  73  97 SW6       29.89S
FARMINGTON     PTCLDY    72  71  97 SW3       29.92R
POPLAR BLUFF   CLOUDY    73  72  96 CALM      29.91R
WEST PLAINS    CLEAR     70  68  93 S3        29.95F

$$




USA.gov is the U.S. government's official web portal to all federal, state and local government web resources and services.